Other Surface Observations
Issued by NWS

Home | Current Version | Previous Version | Text Only | Print | Product List | Glossary On
Versions: 1 2 3 4 5 6 7 8 9 10 11 12 13 14 15 16 17 18 19 20 21 22 23 24 25 26 27 28 29 30 31 32 33 34 35 36 37 38 39 40 41 42 43 44 45 46 47 48 49 50
000
SXUS52 KTAE 270819
OSOTAE
OSOTAE
North Florida/South Alabama/Southwest Georgia Weather Roundup
National Weather Service Tallahassee Florida
400 AM EDT WED MAY 27 2015

Note: "fair" indicates few or no clouds below 12,000 feet with no
significant weather and/or obstructions to visibility.

!FLZ017-115-028-034-025-270900
...North Florida...

CITY           SKY/WX    TMP DP  RH WIND       PRES   REMARKS
TALLAHASSEE    MOCLDY    71  68  90 CALM      30.14F
APALACHICOLA   PTCLDY    80  72  76 SE7       30.11F
PERRY          CLOUDY    71  69  94 N3        30.14S
CROSS CITY       N/A     72  69  90 E3        30.12F
JACKSONVILLE   CLOUDY    74  69  85 CALM      30.15F
$$

!FLZ112-006-005-002-011-270900
...Florida Panhandle...

CITY           SKY/WX    TMP DP  RH WIND       PRES   REMARKS
MARIANNA       CLOUDY    69  69 100 CALM      30.15F
BONIFAY        FAIR      67  66  97 CALM      30.16F
PANAMA CITY NW FAIR      69  66  90 NE5       30.14F
TYNDALL AFB    CLOUDY    72  68  88 E6        30.13F
TYND DRONE APT PTSUNNY   72  70  93 NE6       30.13S
DE FUNIAK SPR  FAIR      67  66  96 MISG      30.16S
EGLIN AFB      MOCLDY    71  67  88 E6        30.12F
DESTIN         CLOUDY    73  69  87 E6        30.13S
HURLBURT       MOCLDY    72  68  87 E5        30.11S
CRESTVIEW      CLOUDY    67  66  97 CALM      30.15S
PENSACOLA      CLOUDY    70  69  97 E5        30.11S
$$

!ALZ063-066-270900
...South Alabama...

CITY           SKY/WX    TMP DP  RH WIND       PRES   REMARKS
DOTHAN         MOCLDY    68  67  96 SE6       30.19F
OZARK CAIRNS   MOCLDY    67  67  98 E5        30.15F
FT RUCKER HELI MOCLDY    68  66  93 CALM      30.15S
RUCKER HELI 3  MOCLDY    67  66  97 E6        30.17S
RUCKER HELI 2  FAIR      67  67 100 E5          N/A
FLORALA APT    CLOUDY    67  65  93 SE3       30.16S
ANDALUSIA      MOCLDY    70  65  84 CALM      30.15R
TROY           MOCLDY    66  64  93 NE3       30.17R
EUFALA         FAIR      66  64  94 CALM      30.16F FOG
MOBILE         CLOUDY    75  74  96 E6        30.12S
$$

!GAZ120>161-270900
...Southwest and South Central Georgia...

CITY           SKY/WX    TMP DP  RH WIND       PRES   REMARKS
THOMASVILLE    FAIR      68  68 100 CALM      30.16F
BAINBRIDGE     MOCLDY    72  70  94 CALM      30.16S
MOODY AFB      CLOUDY    69  67  94 E3        30.15F
VALDOSTA       LGT RAIN  69  68  96 CALM      30.15F
MOULTRIE       CLOUDY    70  68  94 CALM      30.16F
BLAKELY        CLOUDY    70  70 100 CALM      30.17S
ALBANY         CLOUDY    69  67  93 N3        30.18F
TIFTON         FAIR      68  68  99 CALM      30.16F
FITZGERALD     FAIR     N/A N/A N/A CALM      30.20S HAZE
CORDELE        FAIR      69  68  98 CALM      30.19F
AMERICUS       PTSUNNY   64  64 100 CALM      30.20S FOG
HOMERVILLE     FAIR      70  70 100 CALM      30.16F
$$

!GMZ750-755-770-775-270900
...Coastal and Buoy Obs...

STATION/POSITION TIME  TEMP    WIND        PRES    VSBY  WAVE
                       AIR SEA DIR/SP/G                  HT/PER
                 (UTC) (F)     (DEG/KT/KT) (MB)    (MI)  (FT/S)
KEATON BEACH     0800   71     100/  7/  8 1020.2F
CEDAR KEY        0800   78     110/ 15/ 16 1020.1F
C TOWER          0800   78     130/ 16/ 17 1019.3F
APALACHICOLA BUO 0750   79 80  110/ 17/ 19 1019.1F         4/ 4
PANAMA CITY BUOY 0750   79 81  110/ 17/ 17 1019.4F         4/ 6
MOBILE BUOY      0750   78 79  120/  8/ 10 1019.1F         3/ 7
ORANGE BCH AL BU 0750   79 80  120/ 10/ 10 1018.2F         4/ 7
$$



USA.gov is the U.S. government's official web portal to all federal, state and local government web resources and services.